Year,Month,Day,Hour,Minute,Value (Times are PST for temperature in C)
2009,03,31,00,00,6.00
2009,03,31,00,01,6.00
2009,03,31,00,02,6.00
2009,03,31,00,03,6.00
2009,03,31,00,04,6.00
2009,03,31,00,05,6.00
2009,03,31,00,06,6.00
2009,03,31,00,07,6.00
2009,03,31,00,08,6.00
2009,03,31,00,09,6.00
2009,03,31,00,10,6.00
2009,03,31,00,11,6.00
2009,03,31,00,12,6.00
2009,03,31,00,13,6.00
2009,03,31,00,14,6.00
2009,03,31,00,15,6.00
2009,03,31,00,16,6.10
2009,03,31,00,17,6.10
2009,03,31,00,18,6.10
2009,03,31,00,19,6.10
2009,03,31,00,20,6.10
2009,03,31,00,21,6.10
2009,03,31,00,22,6.10
2009,03,31,00,23,6.00
2009,03,31,00,24,6.00
2009,03,31,00,25,5.90
2009,03,31,00,26,5.90
2009,03,31,00,27,6.00
2009,03,31,00,28,6.00
2009,03,31,00,29,6.00
2009,03,31,00,30,6.00
2009,03,31,00,31,6.00
2009,03,31,00,32,6.00
2009,03,31,00,33,6.00
2009,03,31,00,34,5.90
2009,03,31,00,35,6.00
2009,03,31,00,36,5.90
2009,03,31,00,37,5.90
2009,03,31,00,38,5.90
2009,03,31,00,39,5.90
2009,03,31,00,40,5.90
2009,03,31,00,41,5.90
2009,03,31,00,42,5.90
2009,03,31,00,43,5.90
2009,03,31,00,44,6.00
2009,03,31,00,45,6.00
2009,03,31,00,46,6.00
2009,03,31,00,47,6.00
2009,03,31,00,48,6.00
2009,03,31,00,49,6.00
2009,03,31,00,50,6.00
2009,03,31,00,51,6.00
2009,03,31,00,52,6.00
2009,03,31,00,53,6.00
2009,03,31,00,54,5.90
2009,03,31,00,55,5.90
2009,03,31,00,56,5.90
2009,03,31,00,57,5.90
2009,03,31,00,58,5.90
2009,03,31,00,59,5.90
2009,03,31,01,00,5.90
2009,03,31,01,01,5.90
2009,03,31,01,02,5.90
2009,03,31,01,03,5.90
2009,03,31,01,04,5.90
2009,03,31,01,05,5.90
2009,03,31,01,06,5.90
2009,03,31,01,07,5.90
2009,03,31,01,08,5.90
2009,03,31,01,09,5.90
2009,03,31,01,10,5.90
2009,03,31,01,11,5.80
2009,03,31,01,12,5.80
2009,03,31,01,13,5.80
2009,03,31,01,14,5.80
2009,03,31,01,15,5.80
2009,03,31,01,16,5.80
2009,03,31,01,17,5.70
2009,03,31,01,18,5.70
2009,03,31,10,02,6.80
2009,03,31,10,03,6.80
2009,03,31,10,04,6.80
2009,03,31,10,05,6.80
2009,03,31,10,06,6.90
2009,03,31,10,07,6.90
2009,03,31,10,08,6.90
2009,03,31,10,09,6.90
2009,03,31,10,10,6.80
2009,03,31,10,11,6.80
2009,03,31,10,12,6.70
2009,03,31,10,13,6.70
2009,03,31,10,14,6.70
2009,03,31,10,15,6.60
2009,03,31,10,16,6.60
2009,03,31,10,17,6.60
2009,03,31,10,18,6.60
2009,03,31,10,19,6.60
2009,03,31,10,20,6.60
2009,03,31,10,21,6.60
2009,03,31,10,22,6.60
2009,03,31,10,23,6.50
2009,03,31,10,24,6.40
2009,03,31,10,25,6.40
2009,03,31,10,26,6.40
2009,03,31,10,27,6.30
2009,03,31,10,28,6.30
2009,03,31,10,29,6.30
2009,03,31,10,30,6.30
2009,03,31,10,31,6.30
2009,03,31,10,32,6.40
2009,03,31,10,33,6.40
2009,03,31,10,34,6.40
2009,03,31,10,35,6.40
2009,03,31,10,36,6.30
2009,03,31,10,37,6.30
2009,03,31,10,38,6.30
2009,03,31,10,39,6.30
2009,03,31,10,40,6.30
2009,03,31,10,41,6.30
2009,03,31,10,42,6.30
2009,03,31,10,43,6.30
2009,03,31,10,44,6.30
2009,03,31,10,45,6.30
2009,03,31,10,46,6.30
2009,03,31,10,47,6.30
2009,03,31,10,48,6.30
2009,03,31,10,49,6.40
2009,03,31,10,50,6.40
2009,03,31,10,51,6.40
2009,03,31,10,52,6.40
2009,03,31,10,53,6.50
2009,03,31,10,54,6.50
2009,03,31,10,55,6.50
2009,03,31,10,56,6.50
2009,03,31,10,57,6.50
2009,03,31,10,58,6.50
2009,03,31,10,59,6.60
2009,03,31,11,00,6.60
2009,03,31,11,01,6.60
2009,03,31,11,02,6.70
2009,03,31,11,03,6.70
2009,03,31,11,04,6.80
2009,03,31,11,05,6.90
2009,03,31,11,06,6.90
2009,03,31,11,07,6.90
2009,03,31,11,08,6.90
2009,03,31,11,09,6.90
2009,03,31,11,10,6.90
2009,03,31,11,11,6.80
2009,03,31,11,12,6.80
2009,03,31,11,13,6.80
2009,03,31,11,14,6.90
2009,03,31,11,15,7.00
2009,03,31,11,16,7.00
2009,03,31,11,17,7.00
2009,03,31,11,18,6.90
2009,03,31,11,19,6.90
2009,03,31,11,20,6.90
2009,03,31,11,21,6.90
2009,03,31,11,22,6.80
2009,03,31,11,23,6.80
2009,03,31,11,24,6.80
2009,03,31,11,25,6.70
2009,03,31,11,26,6.70
2009,03,31,11,27,6.70
2009,03,31,11,28,6.70
2009,03,31,11,29,6.80
2009,03,31,11,30,6.80
2009,03,31,11,31,6.80
2009,03,31,11,32,6.80
2009,03,31,11,33,6.80
2009,03,31,11,34,6.80
2009,03,31,11,35,6.80
2009,03,31,11,36,6.80
2009,03,31,11,37,6.80
2009,03,31,11,38,6.90
2009,03,31,11,39,6.90
2009,03,31,11,40,6.90
2009,03,31,11,41,6.90
2009,03,31,11,42,6.90
2009,03,31,11,43,6.90
2009,03,31,11,44,6.80
2009,03,31,11,45,6.80
2009,03,31,11,46,6.80
2009,03,31,11,47,6.90
2009,03,31,11,48,6.80
2009,03,31,11,49,6.80
2009,03,31,11,50,6.80
2009,03,31,11,51,6.70
2009,03,31,11,52,6.70
2009,03,31,11,53,6.70
2009,03,31,11,54,6.60
2009,03,31,11,55,6.60
2009,03,31,11,56,6.60
2009,03,31,11,57,6.60
2009,03,31,11,58,6.70
2009,03,31,11,59,6.70
2009,03,31,12,00,6.70
2009,03,31,12,01,6.70
2009,03,31,12,02,6.70
2009,03,31,12,03,6.70
2009,03,31,12,04,6.70
2009,03,31,12,05,6.70
2009,03,31,12,06,6.70
2009,03,31,12,07,6.80
2009,03,31,12,08,6.80
2009,03,31,12,09,6.80
2009,03,31,12,10,6.80
2009,03,31,12,11,6.70
2009,03,31,12,12,6.70
2009,03,31,12,13,6.70
2009,03,31,12,14,6.70
2009,03,31,12,15,6.70
2009,03,31,12,16,6.70
2009,03,31,12,17,6.70
2009,03,31,12,18,6.70
2009,03,31,12,19,6.70
2009,03,31,12,20,6.80
2009,03,31,12,21,6.80
2009,03,31,12,22,6.90
2009,03,31,12,23,6.90
2009,03,31,12,24,6.80
2009,03,31,12,25,6.70
2009,03,31,12,26,6.70
2009,03,31,12,27,6.70
2009,03,31,12,28,6.80
2009,03,31,12,29,6.80
2009,03,31,12,30,6.80
2009,03,31,12,31,6.70
2009,03,31,12,32,6.70
2009,03,31,12,33,6.70
2009,03,31,12,34,6.70
2009,03,31,12,35,6.70
2009,03,31,12,36,6.60
2009,03,31,12,37,6.60
2009,03,31,12,38,6.60
2009,03,31,12,39,6.60
2009,03,31,12,40,6.60
2009,03,31,12,41,6.60
2009,03,31,12,42,6.50
2009,03,31,12,43,6.50
2009,03,31,12,44,6.50
2009,03,31,12,45,6.50
2009,03,31,12,46,6.60
2009,03,31,12,47,6.60
2009,03,31,12,48,6.70
2009,03,31,12,49,6.70
2009,03,31,12,50,6.70
2009,03,31,12,51,6.70
2009,03,31,12,52,6.80
2009,03,31,12,53,7.00
2009,03,31,12,54,7.10
2009,03,31,12,55,7.10
2009,03,31,12,56,7.10
2009,03,31,12,57,7.20
2009,03,31,12,58,7.20
2009,03,31,12,59,7.20
2009,03,31,13,00,7.10
2009,03,31,13,01,7.00
2009,03,31,13,02,7.00
2009,03,31,13,03,6.90
2009,03,31,13,04,6.80
2009,03,31,13,05,6.80
2009,03,31,13,06,6.80
2009,03,31,13,07,6.80
2009,03,31,13,08,6.80
2009,03,31,13,09,6.90
2009,03,31,13,10,7.00
2009,03,31,13,11,7.10
2009,03,31,13,12,7.00
2009,03,31,13,13,7.10
2009,03,31,13,14,7.10
2009,03,31,13,15,7.20
2009,03,31,13,16,7.20
2009,03,31,13,17,7.20
2009,03,31,13,18,7.20
2009,03,31,13,19,7.20
2009,03,31,13,20,7.20
2009,03,31,13,21,7.20
2009,03,31,13,22,7.20
2009,03,31,13,23,7.20
2009,03,31,13,24,7.20
2009,03,31,13,25,7.10
2009,03,31,13,26,6.90
2009,03,31,13,27,6.80
2009,03,31,13,28,6.80
2009,03,31,13,29,6.80
2009,03,31,13,30,6.80
2009,03,31,13,31,6.90
2009,03,31,13,32,7.00
2009,03,31,13,33,7.00
2009,03,31,13,34,6.90
2009,03,31,13,35,6.80
2009,03,31,13,36,6.70
2009,03,31,13,37,6.60
2009,03,31,13,38,6.50
2009,03,31,13,39,6.50
2009,03,31,13,40,6.50
2009,03,31,13,41,6.50
2009,03,31,13,42,6.50
2009,03,31,13,43,6.50
2009,03,31,13,44,6.60
2009,03,31,13,45,6.60
2009,03,31,13,46,6.50
2009,03,31,13,47,6.40
2009,03,31,13,48,6.50
2009,03,31,13,49,6.50
2009,03,31,13,50,6.50
2009,03,31,13,51,6.60
2009,03,31,13,52,6.60
2009,03,31,13,53,6.60
2009,03,31,13,54,6.60
2009,03,31,13,55,6.60
2009,03,31,13,56,6.60
2009,03,31,13,57,6.60
2009,03,31,13,58,6.60
2009,03,31,13,59,6.60
2009,03,31,14,00,6.60
2009,03,31,14,01,6.50
2009,03,31,14,02,6.60
2009,03,31,14,03,6.60
2009,03,31,14,04,6.70
2009,03,31,14,05,6.70
2009,03,31,14,06,6.70
2009,03,31,14,07,6.80
2009,03,31,14,08,6.80
2009,03,31,14,09,6.80
2009,03,31,14,10,6.80
2009,03,31,14,11,6.80
2009,03,31,14,12,6.80
2009,03,31,14,13,6.80
2009,03,31,14,14,6.90
2009,03,31,14,15,6.90
2009,03,31,14,16,6.90
2009,03,31,14,17,7.00
2009,03,31,14,18,7.10
2009,03,31,14,19,7.20
2009,03,31,14,20,7.20
2009,03,31,14,21,7.20
2009,03,31,14,22,7.20
2009,03,31,14,23,7.20
2009,03,31,14,24,7.30
2009,03,31,14,25,7.40
2009,03,31,14,26,7.30
2009,03,31,14,27,7.30
2009,03,31,14,28,7.30
2009,03,31,14,29,7.40
2009,03,31,14,30,7.40
2009,03,31,14,31,7.40
2009,03,31,14,32,7.40
2009,03,31,14,33,7.40
2009,03,31,14,34,7.30
2009,03,31,14,35,7.30
2009,03,31,14,36,7.20
2009,03,31,14,37,7.20
2009,03,31,14,38,7.20
2009,03,31,14,39,7.20
2009,03,31,14,40,7.20
2009,03,31,14,41,7.20
2009,03,31,14,42,7.20
2009,03,31,14,43,7.10
2009,03,31,14,44,7.10
2009,03,31,14,45,7.00
2009,03,31,14,46,7.10
2009,03,31,14,47,7.00
2009,03,31,14,48,7.00
2009,03,31,14,49,7.10
2009,03,31,14,50,7.20
2009,03,31,14,51,7.20
2009,03,31,14,52,7.20
2009,03,31,14,53,7.20
2009,03,31,14,54,7.20
2009,03,31,14,55,7.20
2009,03,31,14,56,7.20
2009,03,31,14,57,7.20
2009,03,31,14,58,7.20
2009,03,31,14,59,7.20
2009,03,31,15,00,7.20
2009,03,31,15,01,7.10
2009,03,31,15,02,7.10
2009,03,31,15,03,7.10
2009,03,31,15,04,7.20
2009,03,31,15,05,7.20
2009,03,31,15,06,7.20
2009,03,31,15,07,7.10
2009,03,31,15,08,7.10
2009,03,31,15,09,7.10
2009,03,31,15,10,7.20
2009,03,31,15,11,7.20
2009,03,31,15,12,7.30
2009,03,31,15,13,7.30
2009,03,31,15,14,7.30
2009,03,31,15,15,7.30
2009,03,31,15,16,7.20
2009,03,31,15,17,7.10
2009,03,31,15,18,7.00
2009,03,31,15,19,7.10
2009,03,31,15,20,7.10
2009,03,31,15,21,7.10
2009,03,31,15,22,7.20
2009,03,31,15,23,7.20
2009,03,31,15,24,7.20
2009,03,31,15,25,7.20
2009,03,31,15,26,7.10
2009,03,31,15,27,7.00
2009,03,31,15,28,7.00
2009,03,31,15,29,7.00
2009,03,31,15,30,6.90
2009,03,31,15,31,6.80
2009,03,31,15,32,6.80
2009,03,31,15,33,6.90
2009,03,31,15,34,6.90
2009,03,31,15,35,6.90
2009,03,31,15,36,6.90
2009,03,31,15,37,7.00
2009,03,31,15,38,7.00
2009,03,31,15,39,7.00
2009,03,31,15,40,7.00
2009,03,31,15,41,7.00
2009,03,31,15,42,6.90
2009,03,31,15,43,6.90
2009,03,31,15,44,6.80
2009,03,31,15,45,6.80
2009,03,31,15,46,6.90
2009,03,31,15,47,6.90
2009,03,31,15,48,6.90
2009,03,31,15,49,6.90
2009,03,31,15,50,6.80
2009,03,31,15,51,6.80
2009,03,31,15,52,6.80
2009,03,31,15,53,6.80
2009,03,31,15,54,6.80
2009,03,31,15,55,6.80
2009,03,31,15,56,6.80
2009,03,31,15,57,6.80
2009,03,31,15,58,6.80
2009,03,31,15,59,6.80
2009,03,31,16,00,6.90
2009,03,31,16,01,6.90
2009,03,31,16,02,6.90
2009,03,31,16,03,6.90
2009,03,31,16,04,6.90
2009,03,31,16,05,6.90
2009,03,31,16,06,6.90
2009,03,31,16,07,6.90
2009,03,31,16,08,6.80
2009,03,31,16,09,6.70
2009,03,31,16,10,6.70
2009,03,31,16,11,6.60
2009,03,31,16,12,6.50
2009,03,31,16,13,6.40
2009,03,31,16,14,6.40
2009,03,31,16,15,6.50
2009,03,31,16,16,6.50
2009,03,31,16,17,6.50
2009,03,31,16,18,6.40
2009,03,31,16,19,6.50
2009,03,31,16,20,6.50
2009,03,31,16,21,6.50
2009,03,31,16,22,6.40
2009,03,31,16,23,6.40
2009,03,31,16,24,6.40
2009,03,31,16,25,6.30
2009,03,31,16,26,6.30
2009,03,31,16,27,6.30
2009,03,31,16,28,6.20
2009,03,31,16,29,6.20
2009,03,31,16,30,6.20
2009,03,31,16,31,6.20
2009,03,31,16,32,6.20
2009,03,31,16,33,6.20
2009,03,31,16,34,6.20
2009,03,31,16,35,6.20
2009,03,31,16,36,6.20
2009,03,31,16,37,6.20
2009,03,31,16,38,6.20
2009,03,31,16,39,6.20
2009,03,31,16,40,6.30
2009,03,31,16,41,6.30
2009,03,31,16,42,6.30
2009,03,31,16,43,6.30
2009,03,31,16,44,6.20
2009,03,31,16,45,6.20
2009,03,31,16,46,6.20
2009,03,31,16,47,6.20
2009,03,31,16,48,6.20
2009,03,31,16,49,6.20
2009,03,31,16,50,6.20
2009,03,31,16,51,6.30
2009,03,31,16,52,6.30
2009,03,31,16,53,6.20
2009,03,31,16,54,6.20
2009,03,31,16,55,6.20
2009,03,31,16,56,6.20
2009,03,31,16,57,6.20
2009,03,31,16,58,6.20
2009,03,31,16,59,6.20
2009,03,31,17,00,6.20
2009,03,31,17,01,6.10
2009,03,31,17,02,6.10
2009,03,31,17,03,6.20
2009,03,31,17,04,6.20
2009,03,31,17,05,6.10
2009,03,31,17,06,6.10
2009,03,31,17,07,6.10
2009,03,31,17,08,6.10
2009,03,31,17,09,6.10
2009,03,31,17,10,6.10
2009,03,31,17,11,6.10
2009,03,31,17,12,6.10
2009,03,31,17,13,6.10
2009,03,31,17,14,6.10
2009,03,31,17,15,6.10
2009,03,31,17,16,6.10
2009,03,31,17,17,6.10
2009,03,31,17,18,6.10
2009,03,31,17,19,6.10
2009,03,31,17,20,6.10
2009,03,31,17,21,6.10
2009,03,31,17,22,6.10
2009,03,31,17,23,6.10
2009,03,31,17,24,6.10
2009,03,31,17,25,6.10
2009,03,31,17,26,6.10
2009,03,31,17,27,6.10
2009,03,31,17,28,6.10
2009,03,31,17,29,6.10
2009,03,31,17,30,6.10
2009,03,31,17,31,6.10
2009,03,31,17,32,6.10
2009,03,31,17,33,6.10
2009,03,31,17,34,6.10
2009,03,31,17,35,6.10
2009,03,31,17,36,6.10
2009,03,31,17,37,6.10
2009,03,31,17,38,6.10
2009,03,31,17,39,6.10
2009,03,31,17,40,6.00
2009,03,31,17,41,6.00
2009,03,31,17,42,6.00
2009,03,31,17,43,6.00
2009,03,31,17,44,6.00
2009,03,31,17,45,6.00
2009,03,31,17,46,6.00
2009,03,31,17,47,6.00
2009,03,31,17,48,6.00
2009,03,31,17,49,6.10
2009,03,31,17,50,6.00
2009,03,31,17,51,6.00
2009,03,31,17,52,6.00
2009,03,31,17,53,6.00
2009,03,31,17,54,6.00
2009,03,31,17,55,6.00
2009,03,31,17,56,6.00
2009,03,31,17,57,6.00
2009,03,31,17,58,6.00
2009,03,31,17,59,6.00
2009,03,31,18,00,6.00
2009,03,31,18,01,6.00
2009,03,31,18,02,6.00
2009,03,31,18,03,6.00
2009,03,31,18,04,6.10
2009,03,31,18,05,6.10
2009,03,31,18,06,6.10
2009,03,31,18,07,6.00
2009,03,31,18,08,6.10
2009,03,31,18,09,6.10
2009,03,31,18,10,6.10
2009,03,31,18,11,6.10
2009,03,31,18,12,6.10
2009,03,31,18,13,6.10
2009,03,31,18,14,6.10
2009,03,31,18,15,6.00
2009,03,31,18,16,6.10
2009,03,31,18,17,6.00
2009,03,31,18,18,6.00
2009,03,31,18,19,6.00
2009,03,31,18,20,6.00
2009,03,31,18,21,6.00
2009,03,31,18,22,6.00
2009,03,31,18,23,5.90
2009,03,31,18,24,5.90
2009,03,31,18,25,5.90
2009,03,31,18,26,5.90
2009,03,31,18,27,5.90
2009,03,31,18,28,5.90
2009,03,31,18,29,5.90
2009,03,31,18,30,5.90
2009,03,31,18,31,5.90
2009,03,31,18,32,5.90
2009,03,31,18,33,5.90
2009,03,31,18,34,5.90
2009,03,31,18,35,5.90
2009,03,31,18,36,5.90
2009,03,31,18,37,5.90
2009,03,31,18,38,5.90
2009,03,31,18,39,5.90
2009,03,31,18,40,5.90
2009,03,31,18,41,5.90
2009,03,31,18,42,5.90
2009,03,31,18,43,5.90
2009,03,31,18,44,5.80
2009,03,31,18,45,5.80
2009,03,31,18,46,5.80
2009,03,31,18,47,5.90
2009,03,31,18,48,5.90
2009,03,31,18,49,5.80
2009,03,31,18,50,5.80
2009,03,31,18,51,5.80
2009,03,31,18,52,5.80
2009,03,31,18,53,5.80
2009,03,31,18,54,5.80
2009,03,31,18,55,5.80
2009,03,31,18,56,5.80
2009,03,31,18,57,5.80
2009,03,31,18,58,5.80
2009,03,31,18,59,5.80
2009,03,31,19,00,5.80
2009,03,31,19,01,5.80
2009,03,31,19,02,5.80
2009,03,31,19,03,5.80
2009,03,31,19,04,5.70
2009,03,31,19,05,5.70
2009,03,31,19,06,5.70
2009,03,31,19,07,5.70
2009,03,31,19,08,5.70
2009,03,31,19,09,5.70
2009,03,31,19,10,5.70
2009,03,31,19,11,5.60
2009,03,31,19,12,5.60
2009,03,31,19,13,5.60
2009,03,31,19,14,5.60
2009,03,31,19,15,5.60
2009,03,31,19,16,5.60
2009,03,31,19,17,5.60
2009,03,31,19,18,5.50
2009,03,31,19,19,5.50
2009,03,31,19,20,5.50
2009,03,31,19,21,5.50
2009,03,31,19,22,5.50
2009,03,31,19,23,5.50
2009,03,31,19,24,5.50
2009,03,31,19,25,5.50
2009,03,31,19,26,5.50
2009,03,31,19,27,5.50
2009,03,31,19,28,5.50
2009,03,31,19,29,5.40
2009,03,31,19,30,5.40
2009,03,31,19,31,5.40
2009,03,31,19,32,5.40
2009,03,31,19,33,5.40
2009,03,31,19,34,5.40
2009,03,31,19,35,5.40
2009,03,31,19,36,5.40
2009,03,31,19,37,5.40
2009,03,31,19,38,5.40
2009,03,31,19,39,5.40
2009,03,31,19,40,5.40
2009,03,31,19,41,5.30
2009,03,31,19,42,5.30
2009,03,31,19,43,5.30
2009,03,31,19,44,5.30
2009,03,31,19,45,5.30
2009,03,31,19,46,5.30
2009,03,31,19,47,5.30
2009,03,31,19,48,5.30
2009,03,31,19,49,5.30
2009,03,31,19,50,5.30
2009,03,31,19,51,5.30
2009,03,31,19,52,5.20
2009,03,31,19,53,5.20
2009,03,31,19,54,5.20
2009,03,31,19,55,5.20
2009,03,31,19,56,5.20
2009,03,31,19,57,5.20
2009,03,31,19,58,5.20
2009,03,31,19,59,5.20
2009,03,31,20,00,5.20
2009,03,31,20,01,5.20
2009,03,31,20,02,5.20
2009,03,31,20,03,5.20
2009,03,31,20,04,5.20
2009,03,31,20,05,5.20
2009,03,31,20,06,5.20
2009,03,31,20,07,5.20
2009,03,31,20,08,5.20
2009,03,31,20,09,5.20
2009,03,31,20,10,5.20
2009,03,31,20,11,5.20
2009,03,31,20,12,5.20
2009,03,31,20,13,5.20
2009,03,31,20,14,5.20
2009,03,31,20,15,5.20
2009,03,31,20,16,5.20
2009,03,31,20,17,5.20
2009,03,31,20,18,5.20
2009,03,31,20,19,5.20
2009,03,31,20,20,5.20
2009,03,31,20,21,5.20
2009,03,31,20,22,5.20
2009,03,31,20,23,5.20
2009,03,31,20,24,5.20
2009,03,31,20,25,5.20
2009,03,31,20,26,5.20
2009,03,31,20,27,5.20
2009,03,31,20,28,5.20
2009,03,31,20,29,5.20
2009,03,31,20,30,5.20
2009,03,31,20,31,5.10
2009,03,31,20,32,5.10
2009,03,31,20,33,5.20
2009,03,31,20,34,5.20
2009,03,31,20,35,5.20
2009,03,31,20,36,5.20
2009,03,31,20,37,5.20
2009,03,31,20,38,5.20
2009,03,31,20,39,5.20
2009,03,31,20,40,5.20
2009,03,31,20,41,5.20
2009,03,31,20,42,5.20
2009,03,31,20,43,5.20
2009,03,31,20,44,5.20
2009,03,31,20,45,5.20
2009,03,31,20,46,5.20
2009,03,31,20,47,5.20
2009,03,31,20,48,5.10
2009,03,31,20,49,5.10
2009,03,31,20,50,5.10
2009,03,31,20,51,5.10
2009,03,31,20,52,5.10
2009,03,31,20,53,5.10
2009,03,31,20,54,5.10
2009,03,31,20,55,5.10
2009,03,31,20,56,5.10
2009,03,31,20,57,5.10
2009,03,31,20,58,5.10
2009,03,31,20,59,5.10
2009,03,31,21,00,5.10
2009,03,31,21,01,5.10
2009,03,31,21,02,5.10
2009,03,31,21,03,5.00
2009,03,31,21,04,5.00
2009,03,31,21,05,5.10
2009,03,31,21,06,5.10
2009,03,31,21,07,5.10
2009,03,31,21,08,5.10
2009,03,31,21,09,5.00
2009,03,31,21,10,5.10
2009,03,31,21,11,5.00
2009,03,31,21,12,5.00
2009,03,31,21,13,5.00
2009,03,31,21,14,5.00
2009,03,31,21,15,5.00
2009,03,31,21,16,5.00
2009,03,31,21,17,5.00
2009,03,31,21,18,5.00
2009,03,31,21,19,5.00
2009,03,31,21,20,5.00
2009,03,31,21,21,5.00
2009,03,31,21,22,5.00
2009,03,31,21,23,5.00
2009,03,31,21,24,5.00
2009,03,31,21,25,5.00
2009,03,31,21,26,5.00
2009,03,31,21,27,5.00
2009,03,31,21,28,5.00
2009,03,31,21,29,5.00
2009,03,31,21,30,4.90
2009,03,31,21,31,5.00
2009,03,31,21,32,5.00
2009,03,31,21,33,5.00
2009,03,31,21,34,5.00
2009,03,31,21,35,5.00
2009,03,31,21,36,5.00
2009,03,31,21,37,5.00
2009,03,31,21,38,5.00
2009,03,31,21,39,5.00
2009,03,31,21,40,5.00
2009,03,31,21,41,5.00
2009,03,31,21,42,5.00
2009,03,31,21,43,4.90
2009,03,31,21,44,4.90
2009,03,31,21,45,4.90
2009,03,31,21,46,4.90
2009,03,31,21,47,5.00
2009,03,31,21,48,5.00
2009,03,31,21,49,5.00
2009,03,31,21,50,5.00
2009,03,31,21,51,5.00
2009,03,31,21,52,5.00
2009,03,31,21,53,5.00
2009,03,31,21,54,5.00
2009,03,31,21,55,5.00
2009,03,31,21,56,5.00
2009,03,31,21,57,5.00
2009,03,31,21,58,5.00
2009,03,31,21,59,4.90
2009,03,31,22,00,4.90
2009,03,31,22,01,4.90
2009,03,31,22,02,4.90
2009,03,31,22,03,4.90
2009,03,31,22,04,4.90
2009,03,31,22,05,4.90
2009,03,31,22,06,4.90
2009,03,31,22,07,4.90
2009,03,31,22,08,4.90
2009,03,31,22,09,4.90
2009,03,31,22,10,4.90
2009,03,31,22,11,4.90
2009,03,31,22,12,4.90
2009,03,31,22,13,4.90
2009,03,31,22,14,4.90
2009,03,31,22,15,4.90
2009,03,31,22,16,4.80
2009,03,31,22,17,4.80
2009,03,31,22,18,4.80
2009,03,31,22,19,4.80
2009,03,31,22,20,4.80
2009,03,31,22,21,4.80
2009,03,31,22,22,4.80
2009,03,31,22,23,4.80
2009,03,31,22,24,4.80
2009,03,31,22,25,4.80
2009,03,31,22,26,4.80
2009,03,31,22,27,4.80
2009,03,31,22,28,4.80
2009,03,31,22,29,4.80
2009,03,31,22,30,4.80
2009,03,31,22,31,4.70
2009,03,31,22,32,4.70
2009,03,31,22,33,4.70
2009,03,31,22,34,4.70
2009,03,31,22,35,4.70
2009,03,31,22,36,4.70
2009,03,31,22,37,4.70
2009,03,31,22,38,4.70
2009,03,31,22,39,4.70
2009,03,31,22,40,4.70
2009,03,31,22,41,4.70
2009,03,31,22,42,4.70
2009,03,31,22,43,4.70
2009,03,31,22,44,4.70
2009,03,31,22,45,4.70
2009,03,31,22,46,4.70
2009,03,31,22,47,4.70
2009,03,31,22,48,4.70
2009,03,31,22,49,4.70
2009,03,31,22,50,4.70
2009,03,31,22,51,4.70
2009,03,31,22,52,4.70
2009,03,31,22,53,4.70
2009,03,31,22,54,4.70
2009,03,31,22,55,4.70
2009,03,31,22,56,4.70
2009,03,31,22,57,4.70
2009,03,31,22,58,4.70
2009,03,31,22,59,4.70
2009,03,31,23,00,4.70
2009,03,31,23,01,4.70
2009,03,31,23,02,4.60
2009,03,31,23,03,4.60
2009,03,31,23,04,4.60
2009,03,31,23,05,4.60
2009,03,31,23,06,4.60
2009,03,31,23,07,4.60
2009,03,31,23,08,4.60
2009,03,31,23,09,4.60
2009,03,31,23,10,4.60
2009,03,31,23,11,4.70
2009,03,31,23,12,4.60
2009,03,31,23,13,4.60
2009,03,31,23,14,4.70
2009,03,31,23,15,4.70
2009,03,31,23,16,4.70
2009,03,31,23,17,4.70
2009,03,31,23,18,4.70
2009,03,31,23,19,4.70
2009,03,31,23,20,4.60
2009,03,31,23,21,4.60
2009,03,31,23,22,4.60
2009,03,31,23,23,4.60
2009,03,31,23,24,4.60
2009,03,31,23,25,4.60
2009,03,31,23,26,4.50
2009,03,31,23,27,4.50
2009,03,31,23,28,4.50
2009,03,31,23,29,4.50
2009,03,31,23,30,4.50
2009,03,31,23,31,4.50
2009,03,31,23,32,4.50
2009,03,31,23,33,4.50
2009,03,31,23,34,4.40
2009,03,31,23,35,4.50
2009,03,31,23,36,4.40
2009,03,31,23,37,4.50
2009,03,31,23,38,4.50
2009,03,31,23,39,4.50
2009,03,31,23,40,4.60
2009,03,31,23,41,4.50
2009,03,31,23,42,4.50
2009,03,31,23,43,4.50
2009,03,31,23,44,4.50
2009,03,31,23,45,4.50
2009,03,31,23,46,4.40
2009,03,31,23,47,4.40
2009,03,31,23,48,4.40
2009,03,31,23,49,4.40
2009,03,31,23,50,4.30
2009,03,31,23,51,4.30
2009,03,31,23,52,4.30
2009,03,31,23,53,4.30
2009,03,31,23,54,4.30
2009,03,31,23,55,4.20
2009,03,31,23,56,4.30
2009,03,31,23,57,4.30
2009,03,31,23,58,4.30
2009,03,31,23,59,4.30
